• In Uzbekistan
  • List of Countries
  • For 7 days
  • Water Temperature
  • Satellite Maps
  • Weather Map
  • Weather Widgets
  • user-avatar
    Login

    Hourly Weather Zaafrana

    Today, 24 November, Friday

    Time Temperature Precipitation Wind Pressure Humidity
    00:00 +13°C° 0 mm 3 mps 750 mmHg 69%
    01:00 +13°C° 0 mm 3 mps 750 mmHg 71%
    02:00 +12°C° 0 mm 3 mps 749 mmHg 74%
    03:00 +12°C° 0 mm 3 mps 749 mmHg 76%
    04:00 +12°C° 0 mm 3 mps 750 mmHg 78%
    05:00 +12°C° 0 mm 3 mps 750 mmHg 79%
    06:00 +13°C° 0 mm 3 mps 750 mmHg 75%
    07:00 +14°C° 0 mm 3 mps 750 mmHg 70%
    08:00 +16°C° 0 mm 3 mps 750 mmHg 65%
    09:00 +17°C° 0 mm 4 mps 750 mmHg 58%
    10:00 +19°C° 0 mm 4 mps 750 mmHg 52%
    11:00 +20°C° 0 mm 5 mps 750 mmHg 45%
    12:00 +20°C° 0 mm 5 mps 749 mmHg 43%
    13:00 +21°C° 0 mm 5 mps 749 mmHg 40%
    14:00 +21°C° 0 mm 4 mps 749 mmHg 38%
    15:00 +20°C° 0 mm 4 mps 748 mmHg 41%
    16:00 +19°C° 0 mm 4 mps 748 mmHg 44%
    17:00 +18°C° 0 mm 4 mps 748 mmHg 48%
    18:00 +18°C° 0 mm 4 mps 748 mmHg 50%
    19:00 +17°C° 0 mm 4 mps 749 mmHg 53%
    20:00 +17°C° 0 mm 4 mps 749 mmHg 56%
    21:00 +16°C° 0 mm 3 mps 749 mmHg 58%
    22:00 +16°C° 0 mm 3 mps 749 mmHg 60%
    23:00 +14°C° 0 mm 3 mps 749 mmHg 62%

    Tomorrow, 25 November, Saturday

    Time Temperature Precipitation Wind Pressure Humidity
    00:00 +14°C° 0 mm 3 mps 749 mmHg 65%
    01:00 +14°C° 0 mm 3 mps 749 mmHg 68%
    02:00 +13°C° 0 mm 3 mps 749 mmHg 71%
    03:00 +14°C° 0 mm 2 mps 748 mmHg 73%
    04:00 +14°C° 0 mm 2 mps 748 mmHg 74%
    05:00 +13°C° 0 mm 2 mps 748 mmHg 76%
    06:00 +14°C° 0 mm 2 mps 748 mmHg 70%
    07:00 +16°C° 0 mm 2 mps 748 mmHg 64%
    08:00 +17°C° 0 mm 2 mps 748 mmHg 58%
    09:00 +18°C° 0 mm 2 mps 748 mmHg 51%
    10:00 +20°C° 0 mm 2 mps 748 mmHg 43%
    11:00 +21°C° 0 mm 2 mps 748 mmHg 36%
    12:00 +23°C° 0 mm 2 mps 748 mmHg 33%
    13:00 +23°C° 0 mm 2 mps 747 mmHg 30%
    14:00 +24°C° 0 mm 2 mps 747 mmHg 27%
    15:00 +23°C° 0 mm 2 mps 747 mmHg 31%
    16:00 +20°C° 0 mm 2 mps 747 mmHg 34%
    17:00 +19°C° 0 mm 2 mps 747 mmHg 37%
    18:00 +18°C° 0 mm 2 mps 747 mmHg 40%
    19:00 +18°C° 0 mm 2 mps 748 mmHg 44%
    20:00 +17°C° 0 mm 2 mps 748 mmHg 47%
    21:00 +16°C° 0 mm 2 mps 748 mmHg 50%
    22:00 +16°C° 0 mm 2 mps 748 mmHg 54%
    23:00 +15°C° 0 mm 2 mps 748 mmHg 57%

    Day after tomorrow, 26 November, Sunday

    Time Temperature Precipitation Wind Pressure Humidity
    00:00 +15°C° 0 mm 2 mps 748 mmHg 60%
    01:00 +15°C° 0 mm 2 mps 748 mmHg 63%
    02:00 +14°C° 0 mm 2 mps 748 mmHg 66%
    03:00 +14°C° 0 mm 2 mps 748 mmHg 69%
    04:00 +14°C° 0 mm 2 mps 748 mmHg 72%
    05:00 +13°C° 0 mm 2 mps 748 mmHg 76%
    06:00 +15°C° 0 mm 2 mps 749 mmHg 71%
    07:00 +16°C° 0 mm 2 mps 749 mmHg 67%
    08:00 +17°C° 0 mm 2 mps 750 mmHg 63%
    09:00 +18°C° 0 mm 2 mps 750 mmHg 58%
    10:00 +19°C° 0 mm 2 mps 750 mmHg 53%
    11:00 +20°C° 0 mm 3 mps 750 mmHg 49%
    12:00 +21°C° 0 mm 3 mps 749 mmHg 46%
    13:00 +21°C° 0 mm 3 mps 749 mmHg 44%
    14:00 +22°C° 0 mm 3 mps 748 mmHg 41%
    15:00 +21°C° 0 mm 3 mps 748 mmHg 45%
    16:00 +20°C° 0 mm 3 mps 748 mmHg 48%
    17:00 +19°C° 0 mm 3 mps 748 mmHg 51%
    18:00 +18°C° 0 mm 2 mps 749 mmHg 55%
    19:00 +17°C° 0 mm 2 mps 749 mmHg 58%
    20:00 +16°C° 0 mm 2 mps 750 mmHg 62%
    21:00 +16°C° 0 mm 1 mps 750 mmHg 64%
    22:00 +15°C° 0 mm 1 mps 750 mmHg 67%
    23:00 +15°C° 0 mm 1 mps 750 mmHg 69%

    27 November, Monday

    Time Temperature Precipitation Wind Pressure Humidity
    00:00 +15°C° 0 mm 1 mps 750 mmHg 72%
    01:00 +14°C° 0 mm 2 mps 750 mmHg 74%
    02:00 +14°C° 0 mm 2 mps 749 mmHg 77%
    03:00 +14°C° 0 mm 2 mps 749 mmHg 79%
    04:00 +13°C° 0 mm 2 mps 749 mmHg 80%
    05:00 +13°C° 0 mm 1 mps 749 mmHg 82%
    06:00 +14°C° 0 mm 1 mps 750 mmHg 76%
    07:00 +15°C° 0 mm 1 mps 750 mmHg 70%
    08:00 +18°C° 0 mm 1 mps 751 mmHg 64%
    09:00 +19°C° 0 mm 1 mps 751 mmHg 59%
    10:00 +19°C° 0 mm 2 mps 750 mmHg 54%
    11:00 +20°C° 0 mm 2 mps 750 mmHg 49%
    12:00 +21°C° 0 mm 2 mps 750 mmHg 47%
    13:00 +21°C° 0 mm 2 mps 749 mmHg 44%
    14:00 +23°C° 0 mm 2 mps 749 mmHg 42%
    15:00 +21°C° 0 mm 2 mps 749 mmHg 45%
    16:00 +20°C° 0 mm 2 mps 749 mmHg 48%
    17:00 +19°C° 0 mm 2 mps 749 mmHg 51%
    18:00 +18°C° 0 mm 2 mps 749 mmHg 54%
    19:00 +18°C° 0 mm 1 mps 749 mmHg 57%
    20:00 +16°C° 0 mm 1 mps 750 mmHg 60%
    21:00 +16°C° 0 mm 1 mps 749 mmHg 61%
    22:00 +15°C° 0 mm 1 mps 749 mmHg 62%
    23:00 +15°C° 0 mm 1 mps 749 mmHg 63%

    28 November, Tuesday

    Time Temperature Precipitation Wind Pressure Humidity
    00:00 +15°C° 0 mm 1 mps 749 mmHg 64%
    01:00 +14°C° 0 mm 1 mps 749 mmHg 65%
    02:00 +14°C° 0 mm 1 mps 749 mmHg 66%
    03:00 +14°C° 0 mm 1 mps 749 mmHg 67%
    04:00 +13°C° 0 mm 1 mps 749 mmHg 69%
    05:00 +13°C° 0 mm 1 mps 748 mmHg 70%
    06:00 +14°C° 0 mm 1 mps 749 mmHg 64%
    07:00 +16°C° 0 mm 1 mps 749 mmHg 57%
    08:00 +18°C° 0 mm 1 mps 750 mmHg 51%
    09:00 +19°C° 0 mm 1 mps 749 mmHg 47%
    10:00 +20°C° 0 mm 2 mps 749 mmHg 42%
    11:00 +21°C° 0 mm 2 mps 749 mmHg 37%
    12:00 +23°C° 0 mm 2 mps 749 mmHg 36%
    13:00 +23°C° 0 mm 2 mps 748 mmHg 34%
    14:00 +24°C° 0 mm 3 mps 747 mmHg 32%
    15:00 +21°C° 0 mm 2 mps 747 mmHg 35%
    16:00 +20°C° 0 mm 2 mps 747 mmHg 39%
    17:00 +19°C° 0 mm 2 mps 748 mmHg 42%
    18:00 +18°C° 0 mm 2 mps 748 mmHg 45%
    19:00 +17°C° 0 mm 2 mps 748 mmHg 47%
    20:00 +18°C° 0 mm 1 mps 748 mmHg 50%
    21:00 +16°C° 0 mm 1 mps 748 mmHg 51%
    22:00 +16°C° 0 mm 1 mps 748 mmHg 51%
    23:00 +15°C° 0 mm 1 mps 748 mmHg 52%

    29 November, Wednesday

    Time Temperature Precipitation Wind Pressure Humidity
    00:00 +15°C° 0 mm 1 mps 748 mmHg 52%
    01:00 +15°C° 0 mm 1 mps 748 mmHg 52%
    02:00 +15°C° 0 mm 1 mps 748 mmHg 51%
    03:00 +14°C° 0 mm 2 mps 748 mmHg 51%
    04:00 +14°C° 0 mm 2 mps 748 mmHg 51%
    05:00 +14°C° 0 mm 2 mps 748 mmHg 51%
    06:00 +15°C° 0 mm 2 mps 749 mmHg 47%
    07:00 +16°C° 0 mm 2 mps 749 mmHg 43%
    08:00 +17°C° 0 mm 2 mps 750 mmHg 39%
    09:00 +19°C° 0 mm 2 mps 750 mmHg 36%
    10:00 +20°C° 0 mm 3 mps 749 mmHg 33%
    11:00 +22°C° 0 mm 3 mps 749 mmHg 30%
    12:00 +22°C° 0 mm 3 mps 749 mmHg 29%
    13:00 +22°C° 0 mm 4 mps 749 mmHg 29%
    14:00 +23°C° 0 mm 4 mps 748 mmHg 28%
    15:00 +21°C° 0 mm 4 mps 748 mmHg 31%
    16:00 +20°C° 0 mm 3 mps 748 mmHg 35%
    17:00 +19°C° 0 mm 3 mps 749 mmHg 38%
    18:00 +18°C° 0 mm 3 mps 749 mmHg 41%
    19:00 +17°C° 0 mm 2 mps 749 mmHg 43%
    20:00 +16°C° 0 mm 2 mps 750 mmHg 45%
    21:00 +15°C° 0 mm 2 mps 750 mmHg 47%
    22:00 +15°C° 0 mm 2 mps 750 mmHg 49%
    23:00 +14°C° 0 mm 2 mps 750 mmHg 52%
    Show more